Simultaneous Nadir Overpasses (SNOs) Predictions

Prediction of SNOs between GOES-16 and METOP-B Satellite Orbit:

Table of predicted SNOs for the next 14.0 days since TLE Epoch: 4/6/2024
Index Date Time (GOES-16) GOES-16 Lat,Lon METOP-B Lat,Lon Distance(km) Time Diff (sec)
1 04/07/2024 14:37:28 0.03, -75.22 0.76, -78.56 379.78 80
2 04/08/2024 14:19:29 0.03, -75.23 -0.37, -73.57 189.69 80
3 04/10/2024 02:38:28 -0.03, -75.23 -0.68, -78.17 335.52 80
4 04/11/2024 02:15:09 -0.03, -75.24 0.44, -73.18 234.03 80
5 04/12/2024 14:34:00 0.02, -75.27 0.57, -77.76 283.54 80
6 04/13/2024 14:16:01 0.02, -75.28 -0.56, -72.77 286.27 80
7 04/15/2024 02:35:00 -0.01, -75.28 -0.49, -77.37 238.18 80
8 04/16/2024 02:11:41 -0.01, -75.30 0.65, -72.39 332.03 80
9 04/17/2024 14:30:32 0.00, -75.34 0.36, -76.96 184.21 80
10 04/18/2024 14:12:32 0.00, -75.36 -0.78, -71.97 386.69 80
11 04/20/2024 02:31:32 -0.00, -75.38 -0.25, -76.58 135.95 80
